| time (UTC) | temp F | wind direction | speed MPH | gust MPH | rain 1hr in | rain 24hr in | rain mn in | humidity % | barometer mb |
| 20260901134543 | 81 | 340 | 2.0 | 6.0 | 0.00 | 0.46 | 0.00 | 91 | 1013.8 |
| 20260901133042 | 80 | 13 | 2.0 | 4.0 | 0.00 | 0.46 | 0.00 | 95 | 1013.9 |
| 20260901131538 | 79 | 352 | 0.0 | 3.0 | 0.00 | 0.46 | 0.00 | 98 | 1013.9 |
| 20260901130034 | 79 | 329 | 0.0 | 4.0 | 0.00 | 0.46 | 0.00 | 98 | 1013.7 |
| 20260901124536 | 78 | 4 | 3.0 | 5.0 | 0.00 | 0.46 | 0.00 | 98 | 1013.6 |
| 20260901123045 | 78 | 9 | 0.0 | 2.0 | 0.00 | 0.46 | 0.00 | 98 | 1013.2 |
| 20260901121536 | 78 | 9 | 0.0 | 1.0 | 0.00 | 0.46 | 0.00 | 98 | 1013.0 |
| 20260901120043 | 78 | 9 | 1.0 | 3.0 | 0.00 | 0.46 | 0.00 | 98 | 1012.9 |
| 20260901114535 | 78 | 6 | 3.0 | 4.0 | 0.00 | 0.46 | 0.00 | 98 | 1013.0 |
| 20260901113035 | 78 | 18 | 1.0 | 3.0 | 0.00 | 0.46 | 0.00 | 98 | 1012.9 |
| 20260901111531 | 78 | 335 | 0.0 | 1.0 | 0.00 | 0.46 | 0.00 | 98 | 1012.8 |
| 20260901110028 | 78 | 335 | 0.0 | 3.0 | 0.00 | 0.46 | 0.00 | 98 | 1012.8 |
| 20260901104527 | 77 | 319 | 1.0 | 3.0 | 0.00 | 0.46 | 0.00 | 98 | 1012.7 |
| 20260901103027 | 77 | 252 | 0.0 | 1.0 | 0.00 | 0.46 | 0.00 | 98 | 1012.8 |
| 20260901101528 | 77 | 252 | 0.0 | 1.0 | 0.00 | 0.46 | 0.00 | 98 | 1012.8 |
| 20260901100025 | 77 | 252 | 0.0 | 0.0 | 0.00 | 0.46 | 0.00 | 98 | 1012.7 |
| 20260901094524 | 77 | 252 | 0.0 | 0.0 | 0.00 | 0.46 | 0.00 | 98 | 1012.7 |
| 20260901093022 | 77 | 252 | 0.0 | 0.0 | 0.00 | 0.46 | 0.00 | 98 | 1012.9 |
| 20260901091521 | 77 | 252 | 0.0 | 0.0 | 0.00 | 0.46 | 0.00 | 98 | 1013.0 |
| 20260901090020 | 77 | 251 | 0.0 | 3.0 | 0.00 | 0.46 | 0.00 | 98 | 1013.2 |
| 20260901084519 | 77 | 251 | 0.0 | 1.0 | 0.00 | 0.46 | 0.00 | 98 | 1013.2 |
| 20260901083022 | 77 | 251 | 0.0 | 1.0 | 0.00 | 0.46 | 0.00 | 98 | 1013.1 |
| 20260901081518 | 77 | 149 | 0.0 | 0.0 | 0.00 | 0.46 | 0.00 | 98 | 1013.1 |
| 20260901080018 | 77 | 149 | 0.0 | 0.0 | 0.00 | 0.46 | 0.00 | 98 | 1013.0 |
| 20260901074518 | 77 | 149 | 0.0 | 0.0 | 0.00 | 0.46 | 0.00 | 98 | 1013.0 |
| 20260901073019 | 77 | 149 | 0.0 | 0.0 | 0.00 | 0.46 | 0.00 | 98 | 1013.0 |
| 20260901071513 | 78 | 149 | 0.0 | 0.0 | 0.00 | 0.46 | 0.00 | 98 | 1013.2 |
| 20260901070012 | 78 | 149 | 0.0 | 0.0 | 0.00 | 0.46 | 0.00 | 98 | 1013.4 |
| 20260901064512 | 78 | 149 | 0.0 | 0.0 | 0.00 | 0.46 | 0.00 | 98 | 1013.3 |
| 20260901063012 | 78 | 149 | 0.0 | 0.0 | 0.00 | 0.46 | 0.00 | 98 | 1013.3 |
| 20260901061517 | 78 | 149 | 0.0 | 0.0 | 0.00 | 0.46 | 0.00 | 98 | 1013.4 |
| 20260901060008 | 78 | 149 | 0.0 | 0.0 | 0.00 | 0.46 | 0.00 | 98 | 1013.5 |
| 20260901054507 | 78 | 149 | 0.0 | 0.0 | 0.00 | 0.46 | 0.00 | 98 | 1013.5 |
| 20260901053006 | 78 | 149 | 0.0 | 0.0 | 0.00 | 0.46 | 0.00 | 98 | 1013.4 |
| 20260901051504 | 78 | 149 | 0.0 | 0.0 | 0.00 | 0.46 | 0.00 | 98 | 1013.4 |
| 20260901050002 | 78 | 149 | 0.0 | 0.0 | 0.00 | 0.46 | 0.00 | 98 | 1013.3 |
| 20260901044501 | 78 | 149 | 0.0 | 0.0 | 0.00 | 0.46 | 0.46 | 98 | 1013.2 |
| 20260901043001 | 79 | 149 | 0.0 | 0.0 | 0.00 | 0.46 | 0.46 | 98 | 1013.2 |
| 20260901041600 | 78 | 149 | 0.0 | 0.0 | 0.00 | 0.46 | 0.46 | 98 | 1013.3 |
| 20260901040059 | 78 | 149 | 0.0 | 0.0 | 0.00 | 0.46 | 0.46 | 97 | 1013.3 |
| 20260901034559 | 78 | 149 | 0.0 | 0.0 | 0.00 | 0.46 | 0.46 | 97 | 1013.3 |
| 20260901033059 | 78 | 149 | 0.0 | 0.0 | 0.00 | 0.46 | 0.46 | 97 | 1013.3 |
| 20260901031601 | 78 | 149 | 0.0 | 0.0 | 0.00 | 0.46 | 0.46 | 97 | 1013.2 |
| 20260901030059 | 78 | 149 | 0.0 | 0.0 | 0.00 | 0.46 | 0.46 | 97 | 1013.1 |
| 20260901024557 | 79 | 149 | 0.0 | 0.0 | 0.00 | 0.46 | 0.46 | 97 | 1012.7 |
| 20260901023057 | 79 | 149 | 0.0 | 0.0 | 0.00 | 0.46 | 0.46 | 97 | 1012.5 |
| 20260901021604 | 79 | 149 | 0.0 | 0.0 | 0.00 | 0.46 | 0.46 | 97 | 1012.4 |
| 20260901020109 | 79 | 149 | 0.0 | 0.0 | 0.00 | 0.46 | 0.46 | 96 | 1012.2 |
| 20260901014554 | 80 | 149 | 0.0 | 0.0 | 0.00 | 0.46 | 0.46 | 94 | 1012.1 |
| 20260901013056 | 84 | 216 | 0.0 | 1.0 | 0.00 | 0.46 | 0.46 | 84 | 1012.0 |
| 20260901011554 | 84 | 216 | 0.0 | 1.0 | 0.00 | 0.46 | 0.46 | 83 | 1012.1 |
| 20260901010053 | 85 | 216 | 0.0 | 1.0 | 0.00 | 0.46 | 0.46 | 82 | 1012.0 |
| 20260901004603 | 86 | 221 | 0.0 | 1.0 | 0.00 | 0.46 | 0.46 | 82 | 1012.1 |
| 20260901003051 | 86 | 178 | 0.0 | 1.0 | 0.00 | 0.46 | 0.46 | 81 | 1012.2 |
| 20260901001550 | 87 | 209 | 0.0 | 1.0 | 0.00 | 0.46 | 0.46 | 81 | 1012.2 |
| 20260901000106 | 87 | 172 | 0.0 | 1.0 | 0.00 | 0.46 | 0.46 | 80 | 1012.1 |
| 20260831234554 | 88 | 235 | 0.0 | 0.0 | 0.00 | 0.46 | 0.46 | 79 | 1012.2 |
| 20260831233048 | 87 | 204 | 0.0 | 1.0 | 0.00 | 0.46 | 0.46 | 80 | 1012.2 |
| 20260831231550 | 87 | 200 | 0.0 | 1.0 | 0.00 | 0.46 | 0.46 | 80 | 1012.4 |
| 20260831230045 | 86 | 200 | 0.0 | 0.0 | 0.00 | 0.46 | 0.46 | 81 | 1012.3 |
| 20260831224543 | 85 | 200 | 0.0 | 2.0 | 0.00 | 0.46 | 0.46 | 85 | 1012.4 |
| 20260831223053 | 83 | 202 | 0.0 | 3.0 | 0.00 | 0.46 | 0.46 | 96 | 1012.5 |
| 20260831221542 | 83 | 18 | 0.0 | 1.0 | 0.00 | 0.46 | 0.46 | 97 | 1012.5 |
| 20260831220040 | 83 | 18 | 0.0 | 0.0 | 0.00 | 0.46 | 0.46 | 97 | 1012.6 |
| 20260831214538 | 82 | 18 | 0.0 | 1.0 | 0.00 | 0.46 | 0.46 | 97 | 1012.8 |
| 20260831213036 | 81 | 18 | 0.0 | 1.0 | 0.00 | 0.46 | 0.46 | 97 | 1013.0 |
| 20260831211535 | 80 | 18 | 0.0 | 1.0 | 0.00 | 0.46 | 0.46 | 97 | 1013.1 |
| 20260831210035 | 79 | 18 | 0.0 | 4.0 | 0.01 | 0.46 | 0.46 | 96 | 1013.5 |
| 20260831204534 | 80 | 206 | 0.0 | 1.0 | 0.01 | 0.46 | 0.46 | 96 | 1013.7 |
| 20260831203033 | 80 | 206 | 0.0 | 2.0 | 0.01 | 0.46 | 0.46 | 96 | 1013.9 |
| 20260831201533 | 79 | 191 | 0.0 | 6.0 | 0.01 | 0.46 | 0.46 | 96 | 1013.7 |
| 20260831200036 | 80 | 181 | 1.0 | 5.0 | 0.41 | 0.45 | 0.45 | 95 | 1013.9 |
| 20260831194558 | 81 | 264 | 0.0 | 1.0 | 0.45 | 0.45 | 0.45 | 97 | 1014.1 |
| 20260831193032 | 80 | 204 | 0.0 | 0.0 | 0.45 | 0.45 | 0.45 | 96 | 1014.0 |
| 20260831191529 | 78 | 204 | 0.0 | 3.0 | 0.45 | 0.45 | 0.45 | 94 | 1014.1 |
| 20260831190027 | 88 | 76 | 5.0 | 16.0 | 0.03 | 0.03 | 0.03 | 81 | 1014.5 |
| 20260831184527 | 92 | 211 | 0.0 | 4.0 | 0.00 | 0.00 | 0.00 | 76 | 1014.3 |
| 20260831183025 | 92 | 208 | 0.0 | 3.0 | 0.00 | 0.00 | 0.00 | 75 | 1014.5 |
| 20260831181524 | 92 | 193 | 1.0 | 3.0 | 0.00 | 0.00 | 0.00 | 75 | 1014.7 |
| 20260831180021 | 91 | 112 | 0.0 | 4.0 | 0.00 | 0.00 | 0.00 | 77 | 1014.9 |
| 20260831174525 | 89 | 340 | 0.0 | 2.0 | 0.00 | 0.00 | 0.00 | 79 | 1015.0 |
| 20260831173014 | 88 | 220 | 0.0 | 3.0 | 0.00 | 0.00 | 0.00 | 80 | 1015.2 |
| 20260831171513 | 87 | 187 | 0.0 | 1.0 | 0.00 | 0.00 | 0.00 | 81 | 1015.2 |
| 20260831170011 | 84 | 159 | 0.0 | 2.0 | 0.00 | 0.00 | 0.00 | 83 | 1015.3 |
| 20260831164512 | 83 | 198 | 2.0 | 5.0 | 0.00 | 0.00 | 0.00 | 80 | 1015.5 |
| 20260831163007 | 86 | 211 | 1.0 | 5.0 | 0.00 | 0.00 | 0.00 | 83 | 1015.6 |
| 20260831161505 | 85 | 19 | 0.0 | 3.0 | 0.00 | 0.00 | 0.00 | 83 | 1015.4 |
| 20260831160007 | 85 | 1 | 2.0 | 3.0 | 0.00 | 0.00 | 0.00 | 84 | 1015.4 |
| 20260831154504 | 85 | 11 | 0.0 | 4.0 | 0.00 | 0.00 | 0.00 | 83 | 1015.3 |
| 20260831153005 | 86 | 5 | 1.0 | 4.0 | 0.00 | 0.00 | 0.00 | 83 | 1015.3 |
| 20260831151501 | 87 | 13 | 0.0 | 5.0 | 0.00 | 0.00 | 0.00 | 82 | 1015.3 |
| 20260831150058 | 85 | 5 | 1.0 | 4.0 | 0.00 | 0.00 | 0.00 | 83 | 1015.2 |
| 20260831144556 | 84 | 8 | 1.0 | 2.0 | 0.00 | 0.00 | 0.00 | 85 | 1015.1 |
| 20260831143110 | 84 | 8 | 0.0 | 5.0 | 0.00 | 0.00 | 0.00 | 87 | 1015.2 |
| 20260831141611 | 84 | 359 | 2.0 | 4.0 | 0.00 | 0.00 | 0.00 | 86 | 1015.1 |
| 20260831140054 | 83 | 173 | 1.0 | 2.0 | 0.00 | 0.00 | 0.00 | 87 | 1015.0 |